TimeMST,TemperatureF,Dew PointF,Humidity,Sea Level PressureIn,VisibilityMPH,Wind Direction,Wind SpeedMPH,Gust SpeedMPH,PrecipitationIn,Events,Conditions,WindDirDegrees,DateUTC
12:56 AM,9.0,6.1,88,29.99,-9999.0,Calm,Calm,-,N/A,,Unknown,0,2012-12-13 07:56:00
1:56 AM,12.0,10.0,92,29.97,-9999.0,Calm,Calm,-,N/A,,Unknown,0,2012-12-13 08:56:00
2:56 AM,12.9,9.0,84,29.98,-9999.0,Calm,Calm,-,N/A,,Unknown,0,2012-12-13 09:56:00
3:56 AM,15.1,12.9,91,29.97,-9999.0,Calm,Calm,-,0.02,,Unknown,0,2012-12-13 10:56:00
4:56 AM,16.0,14.0,92,29.98,-9999.0,Calm,Calm,-,0.02,,Unknown,0,2012-12-13 11:56:00
5:56 AM,16.0,14.0,92,29.98,-9999.0,Calm,Calm,-,0.02,,Unknown,0,2012-12-13 12:56:00
6:56 AM,17.1,14.0,88,29.97,-9999.0,Calm,Calm,-,N/A,,Unknown,0,2012-12-13 13:56:00
7:56 AM,17.1,15.1,92,29.99,-9999.0,Calm,Calm,-,0.02,,Unknown,0,2012-12-13 14:56:00
8:56 AM,19.0,17.1,92,30.00,-9999.0,Calm,Calm,-,0.01,,Unknown,0,2012-12-13 15:56:00
9:56 AM,24.1,23.0,96,30.00,-9999.0,Calm,Calm,-,0.01,,Unknown,0,2012-12-13 16:56:00
10:56 AM,25.0,21.0,85,30.01,-9999.0,Calm,Calm,-,0.01,,Unknown,0,2012-12-13 17:56:00
11:56 AM,26.1,21.0,81,30.01,-9999.0,Calm,Calm,-,N/A,,Unknown,0,2012-12-13 18:56:00
12:56 PM,26.1,21.9,84,30.01,-9999.0,Calm,Calm,-,N/A,,Unknown,0,2012-12-13 19:56:00
1:56 PM,26.1,21.9,84,29.98,-9999.0,Calm,Calm,-,0.01,,Unknown,0,2012-12-13 20:56:00
2:56 PM,27.0,23.0,85,29.96,-9999.0,West,4.6,-,N/A,,Unknown,260,2012-12-13 21:56:00
3:56 PM,26.1,23.0,88,29.94,-9999.0,Calm,Calm,-,0.01,,Unknown,0,2012-12-13 22:56:00
5:56 PM,25.0,21.9,88,29.95,-9999.0,Calm,Calm,-,N/A,,Unknown,0,2012-12-14 00:56:00
6:56 PM,24.1,21.9,91,29.94,-9999.0,Calm,Calm,-,N/A,,Unknown,0,2012-12-14 01:56:00
7:56 PM,24.1,21.9,91,29.95,-9999.0,Calm,Calm,-,0.01,,Unknown,0,2012-12-14 02:56:00
8:56 PM,23.0,21.0,92,29.94,-9999.0,Calm,Calm,-,N/A,,Unknown,0,2012-12-14 03:56:00
9:56 PM,24.1,21.0,88,29.89,-9999.0,Calm,Calm,-,N/A,,Unknown,0,2012-12-14 04:56:00
10:56 PM,21.9,19.9,92,29.89,-9999.0,Calm,Calm,-,N/A,,Unknown,0,2012-12-14 05:56:00
11:56 PM,24.1,21.0,88,29.88,-9999.0,Calm,Calm,-,N/A,,Unknown,0,2012-12-14 06:56:00